CZ-6A DEB, 61144

Orbit data source: Space-Track

CZ-6A DEB, 61144 is space debris in LEO originally from a launch on Tue, 06 Aug 2024 UTC launched from the Taiyaun Space Center, China (TSC). Debris objects in space refer to the collection of defunct objects orbiting the Earth. Examples of debris include non-operational satellites, rocket bodies, and fragments generated from explosions, collisions, or faulty payload assembly.

Loading next visibility...
Identifier
61144, 2024-140QN
Orbit
LEO
Country
Flag of CNCN / PRC
Related business
Manufacturer
SAST
Mission
Spacecraft
Bus & Motor
Unknown
Mass
Unknown
Launch date (UTC)
2024-08-06 (2 years ago)
Launch vehicle
Unknown
Launch site
Taiyaun Space Center, China (TSC)
Object type
Payload
Rocket body
Debris
Shape & HBR
Unknown shape, 0.1 m
Radar Cross Section
Small (<0.1 m²)

Expand to show TLE details & history
Last TLE update: 1 day ago

TLE from 1 day ago
0 CZ-6A DEB
1 61144U 24140QN  26170.70843252  .00000300  00000-0  76641-4 0  9995
2 61144  88.9528 266.9987 0086759 297.9838  61.2606 14.45861513 96291
Epoch: 2026-06-19T17:00Z
TLE epoch observation values (Epoch: 2026-06-19T17:00:08.569Z)
Latitude
-0.00009°
Longitude
104.02947°
Altitude
713.005 km
Speed
7.514 km/s
True Right ascension
17h 47m 59s
True Declination
0° 00' 00"
Sunlit
Object was in full shadow at epoch
Visualization orbit readout
Latitude
Unknown
Longitude
Unknown
Altitude
Unknown
Speed
Unknown
Apparent Right ascension
Unknown
Apparent Declination
Unknown
Sunlit
N/A
Visualization observer readout
Local Sidereal Time
07:24:31
Azimuth
Unknown
Elevation
Unknown
Doppler factor
Unknown
Orbital elements
Apogee altitude
797.834 km
Perigee altitude
674.389 km
Semi-major axis
7,114.249 km
Eccentricity
0.00868
Inclination
88.9528°
RAAN
266.9987°
Arg. of periapsis
297.9838°
True anomaly
62.13685°
Mean anomaly
61.2606°
Eccentric anomaly
61.69827°
Mean motion
3.61701 °/min
Orbital period
99.53 mins
BSTAR
0.000076641
Loading maneuver chart data...
Computing Atmospheric mass density...
Loading historical data...
Loading historical data...
Loading historical data...
Loading historical data...
Loading historical data...
Loading historical data...
Loading historical data...

Documentation

Showing up to 5 results
|